MIDAS 4 DEB, 27478

Orbit data source: Space-Track

MIDAS 4 DEB, 27478 is space debris in LEO originally from a launch on Sat, 21 Oct 1961 UTC launched from the Air Force Western Test Range (AFWTR). Debris objects in space refer to the collection of defunct objects orbiting the Earth. Examples of debris include non-operational satellites, rocket bodies, and fragments generated from explosions, collisions, or faulty payload assembly.

Loading next visibility...
Identifier
27478, 1961-028H
Orbit
LEO
Country
Flag of USUS
Related business
Manufacturer
Unknown
Mission
Spacecraft
Bus & Motor
Unknown
Mass
Unknown
Launch date (UTC)
1961-10-21 (64 years ago)
Launch vehicle
Unknown
Launch site
Air Force Western Test Range (AFWTR)
Object type
Payload
Rocket body
Debris
Shape & HBR
Unknown
Radar Cross Section
Medium (>0.1 m² and <1 m²)

Expand to show TLE details & history
Last TLE update: 1 week ago

TLE from 1 week ago
0 MIDAS 4 DEB
1 27478U 61028H   25235.77273087 -.00000068  00000-0 -28335-1 0  9991
2 27478  95.8472 155.8011 0276331 261.8910 119.6820  8.66673937565025
Epoch: 2025-08-23T18:32Z
TLE epoch observation values (Epoch: 2025-08-23T18:32:43.947Z)
Latitude
24.1579°
Longitude
-97.30724°
Altitude
3,778.296 km
Speed
6.222 km/s
True Right ascension
10h 12m 42s
True Declination
24° 04' 04"
Sunlit
Object was in daylight at epoch
Visualization orbit readout
Latitude
Unknown
Longitude
Unknown
Altitude
Unknown
Speed
Unknown
Apparent Right ascension
Unknown
Apparent Declination
Unknown
Sunlit
N/A
Visualization observer readout
Local Sidereal Time
23:27:48
Azimuth
Unknown
Elevation
Unknown
Doppler factor
Unknown
Orbital elements
Apogee altitude
3,907.799 km
Perigee altitude
3,354.621 km
Semi-major axis
10,009.347 km
Eccentricity
0.02763
Inclination
95.8472°
RAAN
155.8011°
Arg. of periapsis
261.891°
True anomaly
122.38574°
Mean anomaly
119.682°
Eccentric anomaly
121.03857°
Mean motion
2.16738 °/min
Orbital period
166.1 mins
BSTAR
-0.028335
Loading maneuver chart data...
Computing Atmospheric mass density...
Loading historical data...
Loading historical data...
Loading historical data...
Loading historical data...
Loading historical data...
Loading historical data...
Loading historical data...

Documentation

Showing up to 5 results
|